Find Starlink 37518

NORAD ID: 69259 Int'l Des: 2026-117 Owner: SPXS Country: US Constellation: starlink operational
LEOCIRCULAR

当前视图

正在加载3D地球...

About Starlink 37518

Starlink 37518 (NORAD 69259) is a starlink constellation satellite (v2 mini) launched May 29, 2026 by SPXS of US. It operates in LEO, CIRCULAR orbit with a mass of 575.00 kg.

即将过境

Passes for default location (London). Set your location on the main map for personalized predictions.

高度历史

Loading altitude history...

两行轨道根数

1 69259U 26117X 26235.56236891 .00029090 00000-0 86837-3 0 9991
2 69259 53.1579 284.6466 0000599 61.6011 298.5052 15.34414152 13372
Epoch: Aug 23, 2026 • Age: 20 hours

当前状态

高度 476.7 km
远地点 / 近地点 N/A
速度 7.63 km/s
星下点 -41.55°S, 30.28°E
发射日期 May 29, 2026
运行时间 0.2 years
类型 internet

技术详情

分类 Payload
质量 575.00 kg
干质量 530.00 kg
总质量 575.00 kg
长度 0.30 m
直径 4.10 m
跨度 29.00 m
形状 Box + pan
制造商 SPXS
平台类型 Starlink V2MO
阶段状态 In Orbit
所有者/国家 SPXS/US

Most Searched